sat.trackr.live / text

‹ back to catalog

STARLINK-36540

NORAD 67511 · 2026-012U

PAYLOAD ACTIVE UNKNOWN

§ Identity

Operator
Country
US
Launch date
2026-01-18
Launch site
AFETR
Launch vehicle
Mass (kg)
RCS (m²)

Purposes: comms

External: N2YO · Heavens-Above · Gunter

§ Orbital elements

Epoch: 2026-05-24T23:09:28.471104Z

Period
94.27 min
Inclination
42.9986°
Eccentricity
0.0001339
Mean motion
15.27579191 rev/d
Perigee alt
482.1 km
Apogee alt
484.0 km
Semi-major
6,861.2 km
B*
5.0429e-4
RAAN
243.9619°
Arg perigee
273.8082°
Mean anomaly
86.2616°
Rev number
1,942

§ Raw data

STARLINK-365401 67511U 26012U   26144.96491286  .00013640  00000+0  50429-3 0  99992 67511  42.9986 243.9619 0001339 273.8082  86.2616 15.27579191 19422

JSON: /api/v1/satellites/67511 · /tle

For live sub-satellite position, see the globe view (requires WebGL).

§ Visibility from observer

Set your observer location to see the next 7 days of passes ≥ 10°. The values pass through the URL so the page stays shareable.

No JS? Fill the form by hand. The geolocation button needs JavaScript.